Location: Doueneix
(45.9167°N, 1.5289°E)
Time: 09:56:35
(UTC+00:00)

Daily predictions for brighter satellites

Satellite Brightness Start Highest point End
(mag) Time Altitude Azimuth Time Altitude Azimuth Time Altitude Azimuth
Okean 3 Rocket 4.2 16:34:02 10° NNW 16:38:30 66° W 16:42:55 10° S
Cosmos 1842 Rocket 3.7 16:34:10 10° S 16:38:33 61° E 16:42:59 10° NNE
Cosmos 2221 2.5 16:34:24 10° S 16:38:39 70° E 16:42:56 10° NNE
SL-08 R/B 3.3 16:41:17 10° NNE 16:46:02 89° ESE 16:50:41 10° SSW
Cosmos 2084 3.5 16:46:19 10° NW 16:50:35 61° NE 16:55:01 10° SE
Cosmos 1656 3.7 16:45:48 10° NNW 16:51:23 89° ENE 16:56:59 10° SSE
FengYun 1-2 T 4.2 16:48:20 10° SSE 16:53:53 68° ENE 16:59:24 10° N
H-2A R/B 2.7 16:50:29 10° SE 16:54:57 31° ENE 16:59:21 10° N
Cosmos 2034 Rocket 4.0 16:49:15 10° S 16:55:20 71° E 17:01:29 10° NNE
ERBS 4.0 16:54:12 10° WNW 16:56:46 22° NNW 16:59:23 10° NNE
Cosmos 2322 Rocket 4.1 16:57:09 10° NNE 16:58:17 11° NNE 16:59:24 10° NE
Cosmos 1666 4.4 16:56:45 10° NE 16:58:32 13° ENE 17:00:18 10° E
USA 306 4.2 16:56:30 10° WNW 17:00:13 29° N 17:03:44 11° NE
Cosmos 1697 Rocket 2.7 16:57:09 10° NNW 17:02:42 58° ENE 17:08:13 10° SE
USA 267 3.4 16:58:33 10° NE 17:05:07 81° NW 17:11:39 10° WSW
Cosmos 2369 4.1 17:00:30 10° NNW 17:05:59 43° NE 17:11:24 10° SE
Cosmos 1980 Rocket 2.8 17:01:13 10° NNW 17:06:24 35° NE 17:11:32 10° ESE
Cosmos 1763 Rocket 3.4 17:02:03 10° SSW 17:07:04 72° ESE 17:12:11 10° NNE
COSMO-SKYMED 1 3.9 17:05:08 10° NE 17:08:23 20° E 17:11:37 10° SE
Cosmos 1939 Rocket 2.8 17:04:26 10° SSE 17:08:33 79° ENE 17:12:38 10° N
SL-24 R/B - RUBIN 2 4.2 17:06:54 10° NNW 17:11:07 34° NE 17:15:07 10° ESE
Meteor 1-25 Rocket 4.2 17:06:16 10° N 17:11:50 69° ENE 17:17:25 10° SSE
Cosmos 841 Rocket 4.1 17:07:58 10° SSE 17:12:39 36° ESE 17:17:16 10° NE
Cosmos 1812 4.0 17:11:48 10° SE 17:14:44 21° E 17:16:31 16° NE
Cosmos 1937 Rocket 3.6 17:10:33 10° NNW 17:15:49 58° ENE 17:21:03 10° SE
SL-16 R/B 3.7 17:12:28 10° N 17:15:53 16° NE 17:17:26 14° ENE
Cosmos 1634 Rocket 4.2 17:11:01 10° SSE 17:17:04 50° E 17:23:10 10° NNE
USA 307 4.2 17:14:54 10° WNW 17:18:38 28° N 17:21:20 15° NE
Cosmos 1633 Rocket 4.1 17:15:25 10° NNE 17:18:55 23° ENE 17:22:25 10° SE
Cosmos 2082 Rocket 2.8 17:14:58 10° S 17:20:07 36° ESE 17:24:27 14° NE
USA 229 DEB 4.0 17:13:00 10° NW 17:20:23 89° NE 17:28:13 10° SE
USA 229 4.0 17:13:06 10° NW 17:20:29 89° NE 17:28:18 10° SE
NOAA 6 4.1 17:16:42 10° SSE 17:21:51 87° WSW 17:27:01 10° NNW
Cosmos 990 Rocket 4.4 17:19:13 10° NNW 17:24:23 67° WSW 17:29:29 10° S
Cosmos 2026 Rocket 3.9 17:18:30 10° N 17:24:38 64° ENE 17:30:39 10° SSE
CZ-4B DEB 4.2 17:20:55 10° SSE 17:26:26 80° ENE 17:31:57 10° NNW
CORIOLIS 4.2 17:21:09 10° SSE 17:26:33 89° WSW 17:32:01 10° NNW
Cosmos 2195 Rocket 4.4 17:21:42 10° N 17:27:53 80° E 17:34:06 10° S
ATLAS 2AS CENTAUR R/B 4.5 17:22:25 10° WNW 17:28:03 21° NNW 17:33:27 10° NE
USA 276 3.4 17:26:11 10° WNW 17:29:08 39° SSW 17:32:05 10° SE
Okean O Rocket 2.3 17:25:47 10° SE 17:29:46 33° ENE 17:33:46 10° N
Cosmos 372 Rocket 4.1 17:25:01 10° NNW 17:30:07 50° ENE 17:35:12 10° SE
Cosmos 2278 4.1 17:25:05 10° NNW 17:30:25 39° NE 17:35:43 10° ESE
Cosmos 1602 3.6 17:26:33 10° N 17:30:25 82° E 17:34:16 10° S
Cosmos 1743 Rocket 4.1 17:28:15 10° NNW 17:32:32 61° W 17:36:47 10° S
ATLAS CENTAUR R/B 4.0 17:30:52 10° NW 17:32:44 12° NNW 17:34:38 10° N
Cosmos 1782 2.7 17:31:34 10° S 17:35:31 64° E 17:39:28 10° NNE
Cosmos 1151 Rocket 3.6 17:31:38 10° SSE 17:35:32 35° E 17:38:08 18° NE
Meteor 2-14 Rocket 4.3 17:30:44 10° N 17:36:51 74° E 17:42:55 10° SSE
COSMOS 2406 3.2 17:31:55 10° SSW 17:37:40 81° ESE 17:43:05 12° NNE
USA 234 3.5 17:32:10 10° SE 17:38:42 74° SW 17:45:15 10° NW
COSMOS 2455 2.9 17:33:33 10° SSW 17:39:26 60° ESE 17:43:55 18° NE
USA 308 4.2 17:37:34 10° WNW 17:41:14 27° N 17:42:51 21° NE
ARGOS 3.3 17:38:14 10° SE 17:43:26 50° ENE 17:48:38 10° N
Cosmos 1666 Rocket 3.7 17:39:40 10° N 17:44:00 48° ENE 17:48:16 10° SSE
Cosmos 1833 Rocket 2.9 17:38:37 10° SSW 17:44:14 73° WNW 17:49:48 10° NNE
ISS -3.6 17:46:09 10° WNW 17:49:30 56° NNE 17:50:11 46° ENE
Cosmos 1328 Rocket 4.1 17:45:50 10° SSE 17:49:52 36° E 17:50:52 32° ENE
NOSS 2-2 (D) 4.3 17:45:12 10° NW 17:50:24 76° NE 17:57:42 10° SE
NOSS 2-2 (E) 4.4 17:45:35 10° NW 17:50:58 89° NE 17:58:34 10° SE
CZ-2D R/B 3.4 17:47:15 10° S 17:51:04 73° WSW 17:54:55 10° NNW
PAYLOAD B 4.4 17:47:51 10° SSE 17:53:28 80° WSW 17:59:07 10° NNW
CZ-4 R/B 4.5 17:50:11 10° SSE 17:54:10 52° ENE 17:58:13 10° N
Lacrosse 5 rocket 2.3 17:53:06 10° NW 17:56:30 28° NNE 17:56:30 28° NNE
SKYMED 2 3.5 17:53:44 19° NNE 17:56:44 62° ESE 18:01:01 10° S
Meteor 2-21 Rocket 4.3 17:52:29 10° N 17:58:38 80° E 18:04:41 10° SSE
Cosmos 1570 Rocket 4.2 17:54:58 10° S 18:00:00 50° ESE 18:02:05 32° NE
CZ-4B R/B 3.1 17:54:56 10° SSE 18:00:22 84° ENE 18:05:45 10° NNW
Landsat 5 3.6 18:00:26 43° ENE 18:01:04 47° E 18:04:56 10° S
ATLAS CENTAUR R/B 3.0 17:51:49 10° WSW 18:01:11 65° NW 18:03:22 30° NE
SL-08 RB Rocket 3.8 17:58:45 10° SE 18:03:14 49° ENE 18:07:41 10° N
Cosmos 540 Rocket 3.8 17:58:54 10° SSW 18:03:57 64° WNW 18:08:24 14° NNE
GEOS 3 Rocket 3.9 18:02:08 33° E 18:03:59 47° NE 18:08:57 10° NNW
Cosmos 1500 3.7 18:01:01 10° NNW 18:04:43 59° W 18:08:23 10° S
CZ-2C R/B 2.4 17:59:31 10° NNE 18:04:45 74° ESE 18:09:54 10° S
Cosmos 1814 Rocket 3.9 18:02:31 10° S 18:07:42 67° ESE 18:10:08 31° NE
Cosmos 1818 3.9 18:02:48 10° NNW 18:08:03 44° NE 18:09:03 40° ENE
Meteor 1-11 Rocket 4.2 18:03:12 10° N 18:07:51 35° ENE 18:07:51 35° ENE
USA 305 4.0 18:04:59 10° NW 18:08:41 28° N 18:08:56 28° NNE
Cosmos 44 Rocket 3.7 18:07:08 10° NNW 18:11:46 41° NE 18:11:46 41° NE
CZ-4C R/B 2.9 18:05:04 10° NW 18:12:16 73° NE 18:20:10 12° SE
Sich 1 4.1 18:09:22 10° NNW 18:13:27 45° W 18:17:33 10° SSW
Feng Yun 1-1 Rocket 4.3 18:13:21 10° SSE 18:19:12 67° ENE 18:25:02 10° N
Cosmos 2360 Rocket 3.9 18:20:03 10° N 18:22:13 18° NNE 18:22:13 18° NNE
deb Chang Zheng 4 4.2 18:23:20 10° S 18:27:33 54° W 18:31:48 10° NNW
Cosmos 2208 Rocket 3.9 18:27:19 10° SSW 18:32:41 76° ESE 18:33:46 57° NE
H-2A R/B 3.5 18:29:28 10° SSW 18:34:17 38° W 18:39:01 10° NNW
Cosmos 1666 3.5 18:30:46 10° NNW 18:34:21 48° W 18:37:56 10° S
USA 306 4.4 18:37:08 10° NW 18:39:44 27° NNW 18:39:44 27° NNW
Cosmos 2322 Rocket 3.2 18:38:33 10° NNW 18:41:55 31° N 18:41:55 31° N
COSMO-SKYMED 1 3.7 18:42:21 22° NNW 18:44:44 42° WNW 18:48:49 10° SW
USA 267 4.1 18:45:34 32° NNE 18:47:40 40° NNW 18:53:39 10° W
Cosmos 1980 Rocket 3.4 18:45:12 10° NW 18:50:28 41° WSW 18:55:41 10° S
Cosmos 2266 Rocket 3.9 18:45:02 10° N 18:51:27 90° E 18:57:53 10° S
Cosmos 1125 Rocket 4.4 18:54:13 10° NNW 18:57:27 39° NNW 18:57:27 39° NNW
SL-16 R/B 2.8 18:55:21 10° NNW 18:59:20 46° N 18:59:20 46° N
Meteor 2-15 Rocket 4.3 18:56:11 10° S 19:02:20 86° W 19:03:21 65° N
Cosmos 2082 Rocket 3.3 18:58:50 10° WSW 19:04:08 39° NW 19:06:20 28° N
Okean O Rocket 3.7 19:02:20 10° SSW 19:06:07 27° W 19:09:57 10° NW
Cosmos 2333 Rocket 4.4 19:05:22 10° N 19:06:11 13° N 19:06:11 13° N
ATLAS 2AS CENTAUR R/B 4.4 19:16:12 10° NNW 19:20:53 22° N 19:20:53 22° N
COSMOS 2455 4.3 19:20:27 10° WSW 19:25:45 31° NW 19:27:05 28° NNW
Lacrosse 5 rocket 4.4 19:31:53 10° NW 19:32:07 11° NW 19:32:07 11° NW
CZ-4C R/B 4.4 19:54:06 10° NW 20:00:39 33° WSW 20:05:34 18° SSW
